This is the latest recevied weather packets stored in our database for station/object EA5JUX. If no packets are shown the sender has not sent any weather packets the latest 10 day(s).
| Time | Temp. | Humidity | Pressure | Rain* | Wind** | Luminosity | Snow |
|---|---|---|---|---|---|---|---|
| 1787864800 | 26.11° C | 71% | 1012.2 hPa | 0 mm | - | - | - |
| 1787864500 | 25.56° C | 73% | 1011.9 hPa | 0 mm | - | - | - |
| 1787864201 | 25.56° C | 76% | 1011.6 hPa | 0 mm | - | - | - |
| 1787863919 | 25.56° C | 76% | 1011.7 hPa | 0 mm | - | - | - |
| 1787863600 | 25.56° C | 76% | 1012 hPa | 0 mm | - | - | - |
| 1787863301 | 25.56° C | 75% | 1011.5 hPa | 0 mm | - | - | - |
| 1787863000 | 25.56° C | 75% | 1012.1 hPa | 0 mm | - | - | - |
| 1787862701 | 25.56° C | 75% | 1012 hPa | 0 mm | - | - | - |
| 1787862400 | 25.56° C | 74% | 1011.4 hPa | 0 mm | - | - | - |
| 1787862101 | 25.56° C | 72% | 1011 hPa | 0 mm | - | - | - |
| 1787861801 | 25° C | 72% | 1010.4 hPa | 0 mm | - | - | - |
| 1787861517 | 25° C | 73% | 1010.8 hPa | 0 mm | - | - | - |
| 1787861201 | 25° C | 73% | 1010.5 hPa | 0 mm | - | - | - |
| 1787860900 | 25.56° C | 73% | 1010.7 hPa | 0 mm | - | - | - |
| 1787860600 | 25° C | 73% | 1011.2 hPa | 0 mm | - | - | - |
| 1787860300 | 25° C | 75% | 1011.1 hPa | 0 mm | - | - | - |
| 1787860023 | 25° C | 75% | 1011 hPa | 0 mm | - | - | - |
| 1787859700 | 24.44° C | 77% | 1011.2 hPa | 0 mm | - | - | - |
| 1787859401 | 25° C | 77% | 1011.8 hPa | 0 mm | - | - | - |
| 1787859100 | 24.44° C | 76% | 1011.7 hPa | 0 mm | - | - | - |
| 1787858800 | 25° C | 77% | 1009.6 hPa | 0 mm | - | - | - |
| 1787858501 | 25° C | 76% | 1010.8 hPa | 0 mm | - | - | - |
| 1787858200 | 25° C | 75% | 1011 hPa | 0 mm | - | - | - |
| 1787857901 | 25° C | 76% | 1011.2 hPa | 0 mm | - | - | - |
| 1787857601 | 24.44° C | 77% | 1010.9 hPa | 0 mm | - | - | - |
* Rain latest hour (hover to see other rain measurements)
** Current wind speed in m/s (hover to see current wind gust speed)